Regional Weather Roundup
Issued by NWS

Home | Current Version | Previous Version | Text Only | Print | Product List | Glossary Off
Versions: 1 2 3 4 5 6 7 8 9 10 11 12 13 14 15 16 17 18 19 20 21 22 23 24 25 26 27 28 29 30 31 32 33 34 35 36 37 38 39 40 41 42 43 44 45 46 47 48

000
ASUS45 KCYS 300710
RWRWY

WYOMING REGIONAL WEATHER ROUNDUP
NATIONAL WEATHER SERVICE CHEYENNE WY
1200 AM MST FRI JAN 30 2015

NOTE:  "FAIR" INDICATES FEW OR NO CLOUDS BELOW 12,000 FEET
WITH NO SIGNIFICANT WEATHER AND/OR OBSTRUCTIONS TO VISIBILITY.

WYZ001-300800-
YELLOWSTONE NATIONAL PARK

CITY           SKY/WX    TMP DP  RH WIND       PRES   REMARKS
LK YELLOWSTONE   N/A      1  -4  79 CALM      30.33F
W YELLOWSTONE  NOT AVBL

$$
WYZ002>013-054>058-071-098>099-300800-
NORTHERN WYOMING

CITY           SKY/WX    TMP DP  RH WIND       PRES   REMARKS
JACKSON        FAIR      16  14  93 N8        30.33S WCI   5
CODY           FAIR      27  21  80 CALM      30.25F
GREYBULL       FAIR      24  22  91 CALM      30.28S
WORLAND        FAIR      22  20  92 S5        30.27S WCI  16
SHERIDAN       FAIR      23  18  81 CALM      30.22S
BUFFALO        FAIR      33  15  47 N5        30.21S WCI  29
GILLETTE       FAIR      30  22  72 S9        30.21F WCI  22
HULETT           N/A    N/A N/A N/A MISG        N/A
NEWCASTLE      FAIR      34  19  55 E9        30.29F WCI  26

$$
WYZ014>020-022>026-101>103-300800-
CENTRAL WYOMING

CITY           SKY/WX    TMP DP  RH WIND       PRES   REMARKS
BIG PINEY      FAIR      17  14  88 E5        30.31S WCI  10
PINEDALE       FAIR      14  12  92 W6        30.32S WCI   5
DUBOIS         FAIR      25  12  58 NW7       30.24S WCI  17
LANDER         FAIR      29  20  69 CALM      30.25R
RIVERTON       FAIR      28  24  85 NW7       30.26S WCI  21
CASPER         FAIR      31  25  78 SW9       30.25F WCI  23
DOUGLAS        FAIR      26  21  81 S3        30.27F

$$
WYZ021-027>030-104>119-300800-
SOUTHERN WYOMING

CITY           SKY/WX    TMP DP  RH WIND       PRES   REMARKS
EVANSTON       CLOUDY    31  25  78 E8        30.28S WCI  23
KEMMERER       CLOUDY    28  23  80 N9        30.28F WCI  20
FORT BRIDGER   CLOUDY    31  30  94 S5        30.31F WCI  26
ROCK SPRINGS   FAIR      31  26  82 E3        30.27F
DIXON          FAIR      31  28  88 CALM      30.32S
RAWLINS        FAIR      27  24  89 CALM      30.28S
SARATOGA       FAIR      28  27  93 CALM      30.29S
LARAMIE        FAIR      28  22  78 S9        30.26F WCI  19
CHEYENNE       FAIR      29  20  69 S8        30.28F WCI  21
TORRINGTON     FAIR      26  20  77 E8        30.31F WCI  18
PINE BLUFFS    FAIR      32  21  64 S6        30.32F WCI  26

$$


USA.gov is the U.S. government's official web portal to all federal, state and local government web resources and services.